Vertical_Velocity
1 0 -0 -1 -1 -0 3 -5 5 -6 2 -3 1 3 3 -0 0 -0 -0 -3 -1 1 -2 -1 5 -3 -3 -5 -1 7 4 15 -18 9 -1 3 0 -0 2 8 6 -1 5 3
-0 -0 1 1 -1 0 -0 -2 1 2 -7 5 -2 -1 -1 1 -0 0 2 -1 0 -0 -1 -1 4 -2 2 -3 -0 -0 3 -3 6 2 -3 2 -0 9 -0 5 3 12 9 6
1 -0 0 5 -1 -1 -2 -0 4 4 6 -0 -6 0 2 2 -0 0 3 -0 -1 1 -2 6 -1 -3 -2 -4 1 1 -1 2 6 -3 14 2 7 -2 -4 21 15 10 16 4
1 2 3 16 1 1 1 0 -0 -2 -1 2 3 4 1 3 1 0 2 -2 1 -1 3 2 2 -1 0 -3 -1 2 3 1 -0 -2 -2 -7 0 3 -1 7 10 13 13 12
1 -0 7 5 1 -0 2 -1 2 2 -2 0 1 -2 3 -0 -1 1 -1 3 0 2 3 3 -1 0 -0 -1 -1 0 -1 -2 -1 2 2 2 -0 -1 -1 2 -5 2 4 20
1 2 -0 7 1 0 1 3 1 2 -1 0 3 5 7 2 0 -1 1 -2 0 2 4 3 -0 0 -1 -1 -1 -1 1 0 1 1 2 -0 2 4 5 9 7 -5 -9 9
0 -0 7 0 0 -0 14 18 1 -0 1 1 -1 7 3 2 -1 -0 -0 1 1 1 3 0 2 1 -2 0 -2 3 3 2 1 -1 -2 0 4 3 2 6 9 0 -2 7
1 2 7 2 3 8 10 2 -0 0 1 1 0 2 1 -0 0 -0 1 1 1 2 0 -1 1 1 -1 -3 1 1 3 -0 1 0 0 -1 -2 4 -1 -0 3 1 -1 5
7 7 3 2 -0 1 0 1 2 -2 1 1 1 2 -0 -2 -0 1 2 3 3 1 1 -0 -0 -1 0 2 -1 -1 1 -2 0 3 2 0 -1 -4 -4 -0 -3 -1 -4 1
6 6 2 0 0 -1 -0 -0 1 1 1 0 -4 -1 0 1 1 2 1 1 1 0 -0 0 0 0 2 1 4 1 -2 -4 -0 -2 0 1 2 3 1 -4 0 2 0 1
4 4 2 1 0 0 -0 -0 -1 -1 -0 -3 -2 0 2 2 2 0 1 -0 -0 -0 2 1 -0 -0 -2 -2 -1 1 2 -0 -2 -0 1 -1 -2 -3 -2 1 1 -3 -3 -2
3 -1 -2 2 0 0 -0 -0 -0 -1 -0 -0 -1 -1 0 -0 0 1 -2 -0 -1 -0 -2 -1 2 2 1 -0 -1 -1 0 0 -1 -3 -3 -2 2 -0 -1 -0 1 -1 0 -2
-3 -1 -3 -1 -1 -0 -3 -2 -0 -1 -0 -2 1 -0 -0 -0 -1 0 -0 0 0 -1 -1 -1 -1 -1 0 -1 -1 -2 -3 -0 -0 1 2 -1 -4 -3 1 -2 -1 -2 0 2
2 -7 3 2 -3 0 -1 1 -0 0 -0 -0 0 1 1 -0 0 -1 -0 0 -0 -1 0 1 1 2 2 -0 -1 -1 -1 -0 -1 -0 -2 -1 2 1 -2 -2 -2 -1 0 -3
3 1 -1 -2 -1 0 -1 -2 0 0 1 2 1 -1 0 0 -1 -1 -2 -3 -3 -1 -1 -2 0 1 -2 -1 1 -2 -3 -0 -1 -1 1 0 0 -2 -2 1 2 -1 -2 -3
-1 2 2 -2 -1 1 1 4 1 1 1 1 3 1 1 2 1 1 1 -2 -2 -3 -2 -4 -4 -4 -3 -7 2 -1 1 1 -1 -2 -2 -0 1 1 1 -0 -0 -1 -1 -2
-4 7 3 2 -1 0 0 -1 2 0 -1 -3 -3 -2 -1 -3 -3 -4 -3 -2 -3 -1 0 1 0 1 -2 -3 -4 -2 -2 -2 -2 2 -0 -1 -1 -1 -1 -1 1 1 0 -1
4 1 5 2 -1 -1 1 1 -2 1 -1 -0 -1 -2 0 1 -0 -3 -2 -2 -0 1 -1 -2 -2 -3 -2 -1 -2 -2 -2 -2 -2 -2 -1 -2 -0 1 0 1 -0 -0 0 -1
1 -0 0 1 2 0 -1 -1 -2 -0 -0 -3 -1 1 -0 -5 -3 -1 -1 -2 -1 -1 -2 -2 -2 -2 -2 -2 -2 -2 -1 -1 -1 -0 -3 -3 -1 -2 -1 -1 -1 -1 -0 -0
1 -1 0 -1 -2 -0 -4 -2 -3 -3 -1 0 -0 -2 -3 -1 -1 -1 -1 -1 -2 -1 0 1 -0 -0 -1 -1 -2 -1 -2 -2 -2 -2 -2 -1 -1 1 1 -2 -5 -1 0 -0
1 0 0 1 -1 -2 2 1 -1 -1 -2 -3 0 -0 -2 -1 -1 -1 -2 4 -1 -1 -0 -2 -1 -1 -1 -1 0 -2 -2 -2 -1 -0 -1 -0 -0 -0 0 -0 1 -0 2 1
1 -1 -1 -0 1 -1 2 -0 -2 -1 -0 1 -1 -1 -1 -2 -1 -1 0 -0 -0 -1 -2 -1 -1 -2 -2 -3 -2 -3 -2 -2 -2 -2 -2 -2 -2 -2 -1 0 -0 1 1 1
-1 -0 0 1 1 1 0 -1 -1 1 0 -1 -1 -1 -1 1 0 2 6 -3 -1 -2 -1 -1 -1 -2 -2 -3 -2 -2 -1 -2 -1 -1 -1 -2 -2 -2 -2 -1 -2 -0 -1 2
-0 1 1 1 2 2 -0 -0 0 -1 -2 -2 -0 0 -0 1 1 -2 -1 -1 -0 -1 -0 0 -1 -1 -1 -1 -0 -1 -2 -0 -1 -1 -1 -2 -0 -1 0 -0 -1 -0 0 1
1 0 1 1 1 0 -1 -1 -3 -2 -1 1 1 0 1 1 -1 -0 -0 2 -0 -0 2 -2 -1 -0 -0 -0 -1 -1 -1 0 2 0 3 1 -1 -1 -2 0 -2 0 -1 -2
-0 1 1 2 0 -2 -2 -3 0 0 1 1 1 1 -0 -0 -1 -0 -1 -1 0 0 1 1 -1 -0 -0 1 -2 -0 -1 -0 2 1 1 3 5 3 -3 -0 -1 2 2 1
1 1 -0 -0 -0 -0 -0 -1 0 1 -1 -0 1 0 0 -1 -2 -1 -1 -0 0 0 -0 -1 -1 -1 -1 -1 -0 -0 0 0 2 -1 2 2 3 5 6 3 -2 -3 10 1
Height
1431 1434 1434 1434 1434 1435 1436 1433 1437 1424 1428 1429 1430 1431 1432 1442 1444 1444 1443 1441 1441 1437 1431 1427 1418 1408 1403 1397 1390 1383 1375 1364 1365 1359 1359 1352 1359 1363 1365 1368 1371 1374 1374 1379
1433 1434 1436 1435 1432 1433 1433 1433 1432 1432 1429 1430 1437 1438 1442 1444 1444 1445 1445 1443 1442 1439 1433 1430 1418 1412 1407 1402 1396 1387 1379 1375 1371 1364 1361 1360 1358 1360 1362 1363 1367 1372 1373 1376
1431 1437 1438 1434 1431 1428 1429 1430 1432 1431 1432 1440 1437 1440 1444 1446 1447 1448 1447 1444 1443 1440 1436 1430 1421 1416 1412 1407 1402 1393 1387 1381 1374 1370 1364 1361 1360 1361 1361 1357 1359 1361 1367 1371
1434 1439 1437 1439 1443 1442 1444 1440 1445 1445 1445 1447 1447 1448 1450 1450 1449 1450 1448 1446 1442 1440 1436 1430 1425 1421 1417 1412 1406 1400 1393 1386 1380 1375 1371 1370 1369 1368 1366 1362 1360 1352 1357 1366
1436 1429 1430 1445 1448 1452 1450 1443 1452 1451 1450 1451 1451 1451 1452 1453 1452 1452 1449 1448 1445 1442 1437 1432 1428 1425 1420 1416 1411 1405 1399 1394 1389 1385 1381 1379 1375 1373 1371 1371 1367 1363 1361 1365
1437 1434 1428 1445 1450 1451 1454 1442 1454 1454 1451 1449 1450 1439 1453 1455 1454 1452 1451 1450 1448 1444 1439 1435 1432 1428 1424 1419 1415 1410 1406 1402 1398 1394 1390 1387 1385 1381 1377 1375 1372 1373 1368 1369
1433 1430 1440 1454 1452 1452 1443 1449 1455 1454 1451 1446 1450 1454 1456 1456 1455 1455 1454 1453 1449 1446 1441 1438 1436 1432 1428 1424 1420 1418 1414 1409 1405 1401 1398 1395 1392 1388 1385 1380 1378 1374 1377 1377
1430 1434 1434 1453 1449 1447 1456 1456 1457 1456 1455 1452 1455 1457 1457 1457 1457 1457 1456 1454 1452 1449 1445 1442 1439 1436 1433 1429 1428 1424 1420 1416 1413 1409 1406 1403 1400 1397 1393 1391 1387 1385 1386 1384
1444 1446 1456 1458 1458 1458 1457 1458 1458 1458 1458 1457 1457 1457 1458 1460 1459 1459 1457 1456 1455 1452 1450 1446 1443 1440 1438 1436 1433 1429 1426 1422 1420 1418 1414 1412 1408 1405 1403 1401 1398 1398 1397 1396
1446 1454 1456 1459 1460 1460 1459 1459 1459 1460 1460 1460 1460 1462 1462 1462 1461 1460 1458 1457 1456 1455 1452 1450 1448 1445 1442 1441 1440 1436 1431 1429 1427 1423 1421 1418 1415 1413 1412 1410 1410 1407 1406 1406
1451 1456 1458 1460 1461 1461 1461 1462 1462 1463 1463 1464 1465 1466 1466 1465 1463 1461 1460 1459 1458 1457 1455 1453 1452 1449 1446 1445 1443 1441 1438 1434 1432 1430 1428 1426 1423 1420 1418 1417 1416 1415 1415 1415
1439 1450 1453 1459 1462 1462 1463 1464 1465 1465 1467 1467 1468 1467 1467 1466 1466 1465 1463 1463 1462 1460 1458 1457 1455 1452 1449 1447 1445 1444 1442 1439 1437 1435 1434 1432 1431 1428 1426 1426 1425 1423 1421 1420
1449 1452 1454 1459 1462 1463 1464 1465 1466 1468 1469 1469 1470 1470 1469 1468 1468 1467 1467 1466 1465 1463 1462 1460 1459 1456 1453 1450 1448 1447 1445 1444 1442 1440 1439 1437 1435 1435 1434 1431 1427 1426 1425 1423
1451 1453 1458 1461 1463 1465 1466 1467 1469 1470 1471 1472 1472 1472 1472 1471 1470 1470 1469 1468 1467 1466 1464 1462 1461 1458 1456 1454 1453 1451 1449 1446 1445 1443 1442 1441 1439 1438 1436 1434 1432 1430 1428 1426
1454 1454 1456 1460 1463 1466 1467 1469 1470 1471 1472 1473 1473 1473 1474 1473 1472 1471 1471 1471 1470 1468 1467 1466 1464 1461 1460 1458 1457 1453 1452 1449 1448 1447 1445 1443 1441 1440 1438 1437 1435 1433 1432 1430
1454 1456 1458 1460 1463 1466 1468 1469 1470 1471 1472 1472 1473 1473 1473 1473 1473 1473 1473 1472 1472 1470 1469 1467 1466 1464 1462 1460 1458 1455 1454 1451 1449 1449 1448 1446 1444 1442 1441 1440 1439 1436 1434 1433
1453 1456 1458 1461 1463 1465 1467 1469 1470 1471 1472 1473 1474 1474 1475 1475 1475 1475 1475 1475 1474 1472 1470 1469 1467 1465 1463 1461 1459 1458 1456 1454 1452 1452 1449 1447 1446 1444 1443 1442 1440 1439 1436 1434
1453 1455 1458 1459 1461 1463 1466 1468 1470 1472 1473 1474 1474 1475 1476 1477 1477 1478 1477 1476 1475 1474 1472 1470 1468 1465 1463 1461 1459 1458 1457 1456 1455 1452 1451 1449 1447 1446 1445 1443 1441 1440 1438 1434
1452 1455 1457 1459 1461 1462 1464 1466 1469 1471 1473 1475 1476 1477 1477 1478 1478 1478 1477 1477 1476 1474 1473 1470 1468 1466 1464 1461 1460 1459 1458 1456 1455 1454 1452 1451 1449 1447 1446 1444 1442 1440 1438 1437
1451 1454 1456 1458 1460 1463 1464 1467 1469 1471 1473 1475 1476 1477 1477 1478 1478 1478 1478 1477 1476 1474 1472 1470 1468 1465 1463 1461 1460 1459 1457 1456 1454 1453 1451 1450 1448 1447 1445 1443 1441 1440 1439 1437
1450 1453 1455 1458 1460 1463 1465 1467 1469 1472 1474 1475 1476 1477 1478 1478 1478 1478 1478 1479 1476 1473 1471 1469 1468 1466 1464 1462 1461 1459 1457 1455 1454 1453 1451 1449 1447 1446 1445 1443 1442 1440 1439 1437
1450 1453 1456 1458 1460 1462 1465 1468 1470 1472 1473 1475 1477 1477 1478 1478 1478 1478 1477 1477 1475 1473 1472 1470 1468 1466 1464 1461 1461 1459 1457 1455 1454 1452 1450 1448 1446 1444 1443 1441 1440 1439 1437 1436
1451 1454 1456 1459 1462 1464 1466 1469 1471 1473 1475 1476 1477 1478 1478 1479 1478 1479 1479 1475 1474 1473 1471 1470 1468 1466 1464 1462 1461 1459 1457 1455 1453 1451 1449 1446 1444 1442 1440 1439 1437 1435 1434 1433
1452 1454 1457 1460 1463 1466 1468 1470 1473 1475 1476 1477 1477 1477 1478 1478 1478 1476 1475 1473 1473 1471 1470 1468 1467 1465 1463 1461 1459 1457 1455 1454 1451 1449 1447 1444 1442 1440 1438 1436 1434 1433 1431 1429
1453 1456 1459 1461 1464 1467 1469 1472 1474 1475 1476 1476 1476 1476 1476 1475 1475 1475 1472 1471 1470 1469 1469 1467 1465 1463 1461 1459 1457 1454 1452 1450 1448 1446 1443 1441 1439 1437 1436 1434 1432 1430 1428 1426
1454 1457 1460 1463 1466 1467 1470 1472 1475 1475 1476 1476 1475 1474 1474 1473 1472 1471 1470 1469 1468 1467 1467 1465 1462 1460 1458 1456 1453 1451 1448 1445 1443 1440 1437 1435 1434 1433 1431 1430 1428 1426 1425 1423
1455 1458 1460 1463 1466 1468 1470 1472 1474 1474 1474 1474 1474 1473 1472 1471 1470 1470 1468 1468 1466 1465 1463 1461 1459 1456 1454 1451 1449 1447 1444 1441 1437 1434 1432 1430 1428 1427 1425 1423 1422 1421 1420 1418